Location: Newark
(30.1000°N, 109.4667°E)
Time: 01:59:42
(UTC+00:00)

Vanguard 2 Rocket - Pass Details

Date: 19 February 2020
Orbit: 554 x 3326 km, 32.9° (Epoch: 06 April)

Event Time Altitude Azimuth Distance (km) Brightness Sun altitude
Rises 12:32:42 0° 239° (WSW) 7,277 12.4 -26.5°
Reaches altitude 10° 12:37:51 10° 238° (WSW) 6,132 11.8 -27.6°
Maximum altitude 12:56:18 73° 158° (SSE) 2,478 8.8 -31.6°
Enters shadow 12:59:45 56° 96° (E) 2,491 8.6 -32.3°
